Simultaneous Nadir Overpasses (SNOs) Predictions

Prediction of SNOs between AQUA and NPP Satellite Orbit:

Table of predicted SNOs for the next 14.0 days since TLE Epoch: 12/14/2013
Index Date (AQUA) Time (AQUA) Lat,Lon (AQUA) SZA (AQUA ) Date (NPP) Time (NPP) Lat,Lon (NPP) SZA (NPP ) Distance(km) Time Diff (sec)
1 12/15/2013 13:17:18 -73.16, 32.93 57.49 12/15/2013 13:16:59 -73.17, 32.98 57.48 1.85 19
2 12/15/2013 14:06:20 74.37,-156.76 121.31 12/15/2013 14:07:19 74.36,-156.83 121.28 2.49 59
3 12/18/2013 04:44:38 71.82, -21.30 124.00 12/18/2013 04:43:38 71.82, -21.29 124.07 0.36 60
4 12/18/2013 05:33:25 -73.97, 150.56 58.11 12/18/2013 05:33:41 -73.98, 150.64 58.15 2.73 16
5 12/20/2013 21:00:43 72.74, 96.29 123.23 12/20/2013 21:00:19 72.75, 96.30 123.25 0.47 24
6 12/20/2013
